RH
5 5 5 5 6 7 8 6 6 7 7 6 6 7 7 10 13 9 20 75 75 26 23 18 16 14 14 33 49 65 35 26 24 37 46 69 64 60 65 63 58 58 68 64 60
5 5 5 5 5 6 6 7 6 5 4 5 6 5 9 9 10 14 35 48 30 26 20 17 15 14 29 29 38 42 38 27 53 63 74 68 57 49 59 56 55 57 61 57 54
5 4 4 5 5 6 6 6 6 5 5 3 3 4 10 12 10 23 26 28 28 29 29 23 22 25 29 34 36 36 40 50 46 44 65 50 43 40 45 50 60 70 69 60 62
5 5 5 5 6 6 6 6 6 6 5 5 4 5 10 9 18 22 28 28 30 32 30 30 37 30 30 30 38 41 34 32 31 28 32 30 27 26 29 39 48 54 48 56 53
6 5 5 5 5 6 7 6 6 8 6 6 5 5 7 21 27 29 39 32 35 36 35 44 43 38 33 37 36 39 32 32 30 32 30 26 24 20 20 21 28 35 41 44 50
7 6 6 6 5 5 5 7 6 6 7 6 7 7 12 15 21 30 37 32 40 36 38 46 48 46 43 44 40 43 45 43 40 37 35 35 29 23 21 19 19 29 27 36 64
6 8 7 5 4 4 4 5 7 6 6 7 8 8 15 16 16 28 35 34 42 36 43 46 50 47 50 45 55 50 48 34 36 38 34 39 33 29 26 25 31 20 19 45 82
6 8 6 4 4 5 5 4 6 8 8 8 8 8 16 16 14 27 32 34 39 40 38 45 48 54 57 56 50 47 42 56 32 38 40 43 53 31 48 69 58 30 28 60 81
6 8 8 7 4 5 6 5 7 7 8 8 9 8 14 12 12 16 26 32 35 44 40 44 52 54 50 57 45 61 62 52 39 37 45 50 57 45 84 83 57 35 48 84 79
6 8 9 8 5 8 6 8 8 8 9 10 12 11 13 17 14 15 27 30 32 39 47 47 47 41 43 67 68 80 74 58 51 41 50 48 59 64 87 90 98 98 99 100 98
7 7 10 9 6 8 7 9 7 9 10 11 14 14 16 14 14 14 20 26 28 36 36 43 54 73 62 65 79 75 75 73 47 42 64 54 80 88 94 93 90 98 100 100 100
8 8 11 10 11 7 10 8 8 9 18 14 13 17 18 15 17 18 16 28 32 32 35 43 53 44 51 56 62 64 80 63 49 46 62 74 89 86 78 95 97 97 99 98 99
10 9 11 12 12 14 10 10 10 10 15 18 16 19 20 15 20 22 21 37 30 28 40 36 36 41 53 55 75 73 76 71 73 63 61 67 80 90 87 84 97 97 96 98 99
12 13 12 13 14 15 14 13 11 10 17 22 18 21 20 16 23 20 24 29 26 34 40 38 36 43 69 66 68 80 54 58 65 80 81 70 69 60 78 92 80 79 85 91 99
28 24 16 13 13 15 17 13 13 13 40 22 21 21 21 20 23 26 26 34 39 37 56 38 53 57 51 44 67 69 57 59 67 82 87 74 81 60 60 75 82 81 73 84 92
15 28 21 15 15 15 15 12 15 28 54 24 24 27 23 27 29 31 30 38 38 35 31 49 54 66 64 51 73 68 67 73 78 84 78 85 85 79 80 80 77 68 76 83 87
14 9 32 17 19 16 15 19 28 36 18 25 24 25 26 29 26 30 41 53 50 52 51 39 43 46 53 40 55 67 74 65 64 72 73 72 69 79 70 68 76 76 75 77 82
7 8 36 23 21 16 20 28 38 21 18 24 26 25 26 31 31 30 29 37 54 54 43 53 38 44 50 64 64 78 81 81 72 69 64 69 82 66 73 75 82 68 69 74 76
14 11 36 26 25 19 27 34 37 24 24 27 24 27 26 27 30 28 37 39 56 67 58 56 48 40 53 64 63 55 62 86 85 82 75 73 70 65 60 58 62 70 65 75 79
16 18 36 28 27 24 28 29 28 27 33 30 31 31 28 27 30 30 32 38 45 59 56 64 65 42 45 53 57 56 70 75 74 62 56 61 74 57 65 66 70 74 78 74 76
20 21 34 30 27 33 34 34 27 39 39 28 30 29 28 34 42 41 43 43 49 61 61 73 72 46 34 54 59 45 45 74 78 85 69 46 58 67 65 66 74 76 70 65 67
29 36 35 31 33 29 34 27 31 35 43 39 34 32 37 46 47 42 42 40 51 55 60 63 72 61 53 75 70 72 66 68 47 51 76 80 53 73 69 70 78 70 51 59 64
30 33 34 34 41 38 28 30 33 34 33 36 36 41 44 47 58 54 45 51 55 54 72 69 64 51 60 67 62 69 80 85 85 79 70 46 35 68 71 64 71 66 50 54 57
36 50 41 41 36 41 39 43 42 36 35 41 39 42 44 44 47 61 47 46 59 63 79 66 71 51 47 47 38 54 63 79 64 54 50 45 38 50 52 57 57 49 50 51 53
60 62 55 58 53 40 43 44 50 56 42 43 41 40 53 55 48 54 48 44 57 71 69 59 63 50 41 36 37 42 47 69 71 54 41 49 48 44 53 60 49 41 38 39 39
71 77 61 65 62 52 56 61 58 56 44 49 57 40 60 64 64 76 56 60 55 69 63 69 59 53 47 36 41 50 43 46 59 51 57 56 60 52 53 48 45 37 38 35 28
82 81 70 76 75 66 62 76 73 51 61 49 53 56 70 59 49 48 46 51 51 61 71 79 67 64 57 38 42 48 45 50 64 61 50 48 52 52 48 56 54 28 32 29 27
Wind_Speed
9 9 11 14 20 20 15 19 19 21 17 17 21 19 3 8 19 16 21 20 19 16 16 16 14 13 7 6 5 1 4 8 11 12 10 11 10 8 15 12 12 6 4 12 19
7 8 9 10 13 18 17 13 18 17 24 21 16 25 16 7 10 25 19 18 16 17 19 23 22 15 6 6 5 3 3 3 5 4 7 16 12 17 10 17 12 13 9 19 15
6 4 6 8 10 13 18 14 13 15 20 28 24 18 15 9 7 18 17 14 13 14 16 16 15 8 6 6 8 7 4 5 2 8 6 12 18 11 12 11 11 13 25 24 20
4 3 3 5 7 11 11 16 13 10 13 19 34 24 19 10 4 15 15 13 10 12 14 13 14 5 5 5 8 5 3 7 9 12 11 15 18 18 20 23 24 25 24 24 24
8 2 1 5 5 1 7 9 11 8 9 13 28 36 29 22 10 11 11 12 10 11 14 10 15 6 6 6 8 2 5 9 13 22 19 18 18 20 22 23 24 28 23 22 22
11 4 2 3 7 5 4 5 6 12 3 9 11 27 26 28 18 10 8 10 13 14 14 12 7 5 4 6 4 9 13 16 10 12 14 13 17 17 20 21 23 21 24 20 16
11 7 4 3 4 4 5 4 3 9 12 4 6 7 22 16 28 9 6 11 12 12 11 11 7 12 5 5 7 10 9 5 1 9 7 14 14 10 16 18 24 23 23 14 11
10 9 5 2 3 2 4 4 4 6 6 15 4 7 5 14 25 6 9 8 8 7 11 9 9 6 9 8 1 5 3 5 5 8 2 9 14 13 14 20 20 16 17 11 9
11 10 5 3 2 4 5 3 1 2 2 8 8 4 4 8 22 23 7 7 6 1 8 7 5 7 8 3 3 5 5 9 7 6 10 5 15 16 20 20 13 11 11 6 13
11 9 5 6 1 1 9 12 12 8 2 3 10 3 9 9 12 27 3 6 6 0 1 6 5 5 10 10 6 7 6 9 11 10 13 9 12 11 19 17 20 16 12 9 1
11 8 5 5 3 1 10 11 4 2 11 8 6 3 6 9 7 26 11 4 6 5 5 4 8 9 10 3 3 6 8 12 12 8 16 10 3 10 16 21 20 18 17 14 12
10 8 6 2 5 0 5 8 4 4 5 6 5 8 8 9 6 24 17 4 6 5 7 1 10 8 7 4 7 3 5 5 9 5 11 8 3 6 11 15 15 16 18 19 18
10 9 8 2 3 4 5 10 6 7 1 3 7 6 8 6 7 16 20 4 4 4 5 7 4 9 5 5 9 2 3 6 9 18 1 13 4 2 5 12 14 18 12 18 21
11 11 8 5 3 6 3 5 7 10 2 4 4 6 9 1 2 15 18 4 2 4 4 3 4 8 3 3 7 5 2 11 13 9 4 8 5 7 7 6 16 23 25 24 21
16 16 10 7 5 3 1 7 10 5 1 5 2 4 5 5 8 9 12 4 3 3 4 4 7 8 4 8 3 6 15 12 6 2 4 6 4 6 8 9 17 21 25 23 19
11 21 14 8 7 4 6 9 10 2 1 2 3 6 2 6 5 11 6 10 1 2 1 4 2 2 3 12 2 11 3 2 2 1 0 5 4 4 8 8 10 17 18 20 21
8 13 20 12 7 3 8 9 3 1 1 6 4 6 3 7 4 10 7 8 7 6 7 6 1 2 4 7 2 12 3 2 0 2 4 4 2 2 8 7 9 13 16 15 16
7 9 22 13 10 4 7 3 3 2 3 2 4 5 4 8 3 6 2 4 5 4 2 6 2 6 6 4 4 6 5 3 4 5 4 3 4 3 3 8 9 10 10 11 15
5 5 20 14 11 3 3 5 1 1 2 7 5 2 1 1 3 5 4 3 1 3 5 5 3 1 1 2 3 4 5 2 0 1 3 3 2 7 4 4 5 7 8 10 13
3 2 20 13 10 5 2 4 1 1 1 1 3 2 3 5 6 5 3 3 1 2 1 1 6 1 1 2 6 4 3 1 1 5 4 1 3 4 7 9 8 8 11 12 11
3 0 16 10 5 8 4 2 2 2 1 2 1 2 2 4 2 3 3 3 1 2 1 3 1 0 2 4 3 1 1 4 1 2 3 5 1 4 5 6 9 12 13 13 12
3 1 14 6 4 5 2 1 2 2 2 1 1 1 1 1 3 2 3 2 3 2 3 2 1 5 2 2 1 2 1 1 3 1 1 3 5 4 5 6 8 17 17 13 11
3 2 9 5 3 2 2 1 1 1 2 1 1 2 1 2 3 3 3 2 4 2 2 4 2 6 2 3 3 3 2 2 2 1 4 3 2 1 4 9 11 15 12 13 12
3 1 6 9 7 3 3 1 0 1 1 2 2 2 1 2 4 3 3 2 3 2 2 4 2 6 5 6 2 4 5 5 2 3 2 7 8 5 5 6 8 8 9 10 10
6 3 2 3 4 3 1 1 1 1 2 4 3 7 4 3 3 5 4 3 2 1 2 2 4 4 13 17 13 13 11 10 9 6 6 2 6 11 11 7 10 11 12 12 10
4 2 2 3 2 1 2 2 1 1 4 3 4 3 6 5 6 3 3 4 2 2 1 0 2 3 6 2 5 9 13 13 13 11 13 16 17 12 14 11 14 17 14 14 13
8 6 1 1 2 2 3 3 3 2 4 6 6 2 4 13 16 11 8 3 1 3 3 1 3 3 5 2 11 8 7 15 8 9 6 8 7 3 4 7 10 14 14 16 17
Wind_Direction
83 94 82 74 66 61 70 59 59 49 42 33 37 34 316 56 31 39 37 2 358 2 4 7 13 25 45 45 37 353 240 260 258 265 266 351 345 326 321 279 308 295 15 345 341
81 94 87 80 71 63 62 76 59 63 53 44 35 15 2 207 33 40 15 5 7 8 11 11 7 13 47 12 17 333 259 287 2 313 297 309 314 320 321 310 292 300 260 319 327
58 92 116 98 78 70 59 77 62 63 59 46 42 30 12 132 73 11 10 7 6 6 11 13 9 32 56 37 15 355 321 355 322 311 303 297 296 304 295 288 283 316 319 325 334
51 71 152 142 102 73 69 60 55 59 54 47 42 53 55 121 57 357 14 16 14 9 11 18 15 33 41 26 2 323 358 332 304 307 298 286 292 283 276 273 281 294 306 309 322
32 47 54 211 211 126 59 42 29 56 53 46 42 46 56 61 23 9 17 23 29 34 36 26 29 25 46 357 342 35 338 309 300 295 289 282 263 267 274 278 275 285 290 298 312
27 31 328 282 230 241 260 29 39 35 46 48 49 46 50 63 7 7 24 25 43 47 38 34 29 38 41 355 2 322 310 297 294 300 297 301 286 273 275 271 272 266 276 291 305
18 20 11 339 206 227 237 232 28 54 46 22 23 17 43 58 21 7 32 34 41 51 47 48 45 47 341 351 335 313 316 319 179 348 311 326 283 263 282 281 282 264 262 266 313
14 14 23 82 170 243 225 211 283 240 25 32 22 22 70 20 17 56 30 23 31 47 41 61 50 53 24 328 14 329 243 336 338 334 320 319 299 322 333 312 284 251 245 240 277
15 10 18 20 257 278 210 185 255 253 283 15 26 71 49 6 12 16 37 47 14 39 36 36 37 50 26 27 61 37 324 329 328 359 330 332 300 335 348 328 264 231 220 204 245
20 20 14 13 2 307 171 139 77 58 337 345 18 96 20 349 17 14 30 31 35 214 328 21 34 20 26 24 20 326 329 327 315 329 326 320 327 356 10 9 19 31 42 43 94
12 21 24 24 22 138 187 191 306 37 62 77 69 88 339 1 22 13 15 19 3 35 23 23 24 13 350 24 267 278 282 298 309 320 336 338 356 42 23 22 22 16 17 16 12
17 19 16 49 38 28 193 197 210 152 101 62 43 28 6 5 8 8 15 32 17 30 337 115 25 359 321 310 313 237 286 326 306 327 328 329 12 31 33 31 20 13 6 9 5
23 23 19 357 330 4 213 217 251 185 119 31 29 14 8 11 41 360 8 14 16 17 10 37 343 330 325 312 337 284 267 326 320 322 189 328 197 3 39 32 18 20 21 18 11
40 29 22 22 353 337 199 197 181 170 203 32 16 15 357 34 67 2 9 12 40 352 334 295 342 331 323 316 344 307 217 308 309 329 349 11 345 49 351 28 17 11 7 7 3
52 34 23 14 350 347 201 165 164 164 215 21 15 347 12 50 329 352 3 33 29 343 318 15 328 348 330 348 330 279 327 300 270 290 298 21 282 10 11 352 3 1 357 354 360
27 29 22 16 8 23 132 141 143 208 15 55 340 358 352 27 16 335 9 31 21 313 317 279 294 271 295 314 247 307 324 183 192 236 29 349 334 32 355 325 336 347 346 344 350
338 9 14 18 18 76 138 142 199 55 27 356 342 355 351 357 11 11 24 24 21 345 11 330 203 334 327 315 169 353 312 339 179 8 17 328 297 330 308 304 308 322 332 338 343
328 357 7 13 25 95 149 223 63 10 359 19 335 319 25 358 41 359 1 34 61 353 323 354 353 9 356 42 314 11 5 21 349 342 339 319 4 7 267 284 278 314 320 335 353
338 4 1 9 17 65 167 57 66 245 321 330 308 304 11 55 334 336 32 7 321 348 0 342 261 341 331 52 322 11 27 344 25 246 265 342 235 265 283 281 285 318 339 350 350
8 26 6 7 15 41 68 102 167 218 327 248 341 355 310 339 333 348 352 115 52 340 254 127 293 180 17 169 62 33 122 250 140 349 335 309 266 321 327 324 330 336 339 343 346
10 62 360 5 25 53 66 78 161 200 191 267 268 281 279 314 319 309 319 155 186 116 94 150 255 83 242 26 12 33 49 54 77 327 320 312 248 195 240 277 306 312 323 330 336
354 324 360 15 36 44 71 84 155 178 187 215 209 261 273 283 277 273 281 250 166 165 312 162 280 280 341 77 27 38 321 306 322 2 358 304 281 164 244 278 278 297 313 324 327
33 24 12 43 59 69 93 107 264 199 212 181 217 239 183 248 292 244 248 188 168 218 219 164 187 301 191 160 175 238 158 107 97 287 225 287 329 45 271 289 275 275 297 317 325
13 354 23 55 81 106 153 99 326 226 209 197 190 171 203 247 210 287 267 193 174 176 99 180 249 242 278 307 354 246 197 200 219 253 168 240 297 293 288 307 308 285 290 304 311
25 75 54 14 48 72 153 164 319 262 210 211 222 229 193 261 248 231 237 270 163 354 119 209 262 232 263 271 270 255 249 195 201 215 236 27 249 281 292 289 287 284 290 298 305
34 339 91 100 86 0 353 235 264 266 201 202 226 171 187 229 229 272 174 213 258 124 161 17 270 313 281 219 209 255 242 222 221 237 256 269 277 248 264 268 278 283 285 284 291
12 15 36 168 166 201 208 197 235 183 222 237 216 182 227 247 255 268 240 242 196 163 160 251 293 326 271 319 297 268 230 191 189 203 197 210 228 161 245 247 270 289 274 277 288